Weather History for Miami, FL

Change the Weather History Date:

Sunday, March 17, 2013

  Actual Average Record
Temperature  
Mean Temperature 69 °F 73 °F  
Max Temperature 78 °F 80 °F 88 °F (1953)
Min Temperature 59 °F 65 °F 39 °F (1901)
Degree Days  
Heating Degree Days 0 0  
Month to date heating degree days 24 8  
Since 1 July heating degree days 60 124  
Cooling Degree Days 4 8  
Month to date cooling degree days 42 128  
Year to date cooling degree days 521 450  
Growing Degree Days 18 (Base 50)    
Moisture  
Dew Point 57 °F    
Average Humidity 62    
Maximum Humidity 73    
Minimum Humidity 50    
Precipitation  
Precipitation 0.00 in 0.10 in 3.00 in (1993)
Month to date precipitation T 1.52  
Year to date precipitation 2.39 5.39  
Snow  
Snow 0.00 in - - ()
Month to date snowfall 0.0  
Since 1 July snowfall 0.0  
Snow Depth -    
Sea Level Pressure  
Sea Level Pressure 30.10 in    
Wind  
Wind Speed 6 mph (SE)    
Max Wind Speed 17 mph    
Max Gust Speed 23 mph    
Visibility 10 miles    
Events      
T = Trace of Precipitation, MM = Missing Value Source: NWS Daily Summary

Daily Weather History Graph

Daily Weather History Graph

Search for Another Location

Airport:

Trip Planner

Search our weather history database for the weather conditions in past years. The results will help you decide how hot, cold, wet, or windy it might be!

Date:

Astronomy

Mar. 17, 2013 Rise Set
Actual Time 7:28 AM EDT 7:31 PM EDT
Civil Twilight 7:05 AM EDT 7:54 PM EDT
Nautical Twilight 6:38 AM EDT 8:20 PM EDT
Astronomical Twilight 6:11 AM EDT 8:47 PM EDT
Moon 11:11 AM EDT (3/17) 12:07 AM EDT (3/17)
Length of Visible Light 12h 48m
Length of Day
12h 03m
Waxing Crescent, 31% of the Moon is Illuminated
Mar 17
Waxing Crescent
Mar 19
First Quarter
Mar 27
Full
Apr 3
Last Quarter
Apr 10
New

Hourly Weather History & Observations

Time (EDT) Temp. Dew Point Humidity Pressure Visibility Wind Dir Wind Speed Gust Speed Precip Events Conditions
12:53 AM 66.0 °F 54.0 °F 65% 30.14 in 10.0 mi SSE 3.5 mph - N/A   Clear
1:53 AM 64.9 °F 54.0 °F 68% 30.12 in 10.0 mi SSE 4.6 mph - N/A   Clear
2:53 AM 66.0 °F 55.0 °F 68% 30.11 in 10.0 mi SSE 3.5 mph - N/A   Clear
3:53 AM 66.0 °F 55.0 °F 68% 30.10 in 10.0 mi Calm Calm - N/A   Clear
4:53 AM 63.0 °F 55.0 °F 75% 30.09 in 10.0 mi Calm Calm - N/A   Clear
5:53 AM 62.1 °F 54.0 °F 75% 30.10 in 10.0 mi Calm Calm - N/A   Partly Cloudy
6:53 AM 60.1 °F 55.0 °F 83% 30.11 in 10.0 mi Calm Calm - N/A   Scattered Clouds
7:53 AM 60.1 °F 55.0 °F 83% 30.13 in 10.0 mi Calm Calm - N/A   Scattered Clouds
8:53 AM 64.9 °F 57.0 °F 75% 30.14 in 10.0 mi Calm Calm - N/A   Mostly Cloudy
9:53 AM 72.0 °F 57.9 °F 61% 30.15 in 10.0 mi ESE 5.8 mph - N/A   Mostly Cloudy
10:53 AM 73.9 °F 57.9 °F 57% 30.15 in 10.0 mi SE 10.4 mph - N/A   Mostly Cloudy
11:53 AM 75.0 °F 55.9 °F 51% 30.15 in 10.0 mi SSE 11.5 mph - N/A   Mostly Cloudy
12:53 PM 75.0 °F 57.0 °F 53% 30.14 in 10.0 mi ESE 16.1 mph - N/A   Mostly Cloudy
1:53 PM 75.0 °F 57.0 °F 53% 30.13 in 10.0 mi SE 12.7 mph 21.9 mph N/A   Mostly Cloudy
2:53 PM 75.9 °F 55.9 °F 50% 30.09 in 10.0 mi SE 9.2 mph 17.3 mph N/A   Mostly Cloudy
3:53 PM 75.9 °F 55.9 °F 50% 30.07 in 10.0 mi SSE 8.1 mph 17.3 mph N/A   Mostly Cloudy
4:53 PM 75.0 °F 57.0 °F 53% 30.06 in 10.0 mi SSE 9.2 mph - N/A   Mostly Cloudy
5:53 PM 73.9 °F 57.0 °F 55% 30.07 in 10.0 mi SSE 9.2 mph 17.3 mph N/A   Mostly Cloudy
6:53 PM 72.0 °F 57.0 °F 59% 30.06 in 10.0 mi SE 9.2 mph - N/A   Mostly Cloudy
7:53 PM 72.0 °F 57.0 °F 59% 30.04 in 10.0 mi SE 8.1 mph - N/A   Mostly Cloudy
8:53 PM 71.1 °F 57.9 °F 63% 30.06 in 10.0 mi ESE 4.6 mph - N/A   Mostly Cloudy
9:53 PM 70.0 °F 60.1 °F 71% 30.09 in 10.0 mi SSE 3.5 mph - N/A   Scattered Clouds
10:53 PM 69.1 °F 60.1 °F 73% 30.09 in 10.0 mi East 3.5 mph - N/A   Scattered Clouds
11:53 PM 70.0 °F 61.0 °F 73% 30.10 in 10.0 mi East 4.6 mph - N/A   Scattered Clouds